{"data":{"norad_id":66189,"epoch":"2026-05-24T17:11:55.124736Z","epoch_age_seconds":102819,"freshness":"FRESH","line1":"1 66189U 25243N   26144.71661024  .00024565  00000+0  83879-3 0  9999","line2":"2 66189  53.1579 252.1306 0001029  81.3617 278.7501 15.30198755 32299","mean_motion":15.30198755,"eccentricity":0.0001029,"inclination_deg":53.1579,"raan_deg":252.1306,"arg_perigee_deg":81.3617,"mean_anomaly_deg":278.7501,"bstar":0.00083879,"rev_number":3229,"period_min":94.105422272416,"perigee_km":474.51357645697,"apogee_km":475.92399707789,"semimajor_km":6853.3557867674,"source":"CELESTRAK","updated_at":"2026-05-25T13:38:21.119986Z"}}